Location: Ammerl�gen
(47.2167°N, 9.6000°E)
Time: 12:22:08
(UTC+00:00)

RS-15 - Pass Details

Date: 07 December 2021
Orbit: 1882 x 2162 km, 64.8° (Epoch: 22 January)

Event Time Altitude Azimuth Distance (km) Brightness Sun altitude
Exits shadow 00:59:28 32° 79° (E) 3,110 9.1 -57.4°
Drops below altitude 10° 01:06:50 10° 46° (NE) 4,611 10.3 -56.4°
Sets 01:10:42 0° 38° (NE) 5,647 10.9 -55.9°
